SCP
1 1 1 1 1 1 1 1 0 0 0 0 0 0 0 0 0 0 0 0 0 0 0 0 0 0 0 0 0 0 0 0
0 0 0 1 1 1 1 1 0 0 0 0 0 0 0 0 0 0 0 0 0 0 0 0 0 0 0 0 0 0 0 0
0 0 0 0 0 0 0 0 0 0 0 0 0 0 0 0 0 0 0 0 0 0 0 0 0 0 0 0 0 0 0 0
0 0 0 0 0 0 0 0 0 0 0 0 0 0 0 0 0 0 0 0 0 0 0 0 0 0 0 0 0 0 0 0
0 0 0 0 0 0 0 0 0 0 0 0 0 0 0 0 0 0 0 0 0 0 0 0 0 0 0 0 0 0 0 0
0 0 0 0 0 0 0 0 0 0 0 0 0 0 0 0 0 0 0 0 0 0 0 0 0 0 0 0 0 0 0 0
0 0 0 0 0 0 0 0 0 0 0 0 0 0 0 0 0 0 0 0 0 0 0 0 0 0 0 0 0 0 0 0
0 0 0 0 0 0 0 0 0 0 0 0 0 0 0 0 0 0 0 0 0 0 0 0 0 0 0 0 0 0 0 0
0 0 0 0 0 0 0 0 0 0 0 0 0 0 0 0 0 0 0 0 0 0 0 0 0 0 0 0 0 0 0 0
0 0 0 0 0 0 0 0 0 0 0 0 0 0 0 0 0 0 0 0 0 0 0 0 0 0 0 0 0 0 0 0
0 0 0 0 0 0 0 0 0 0 0 0 0 0 0 0 0 0 0 0 0 0 0 0 0 0 0 0 0 0 0 0
0 0 0 0 0 0 0 0 0 0 0 0 0 0 0 0 0 0 0 0 0 0 0 0 0 0 0 0 0 0 0 0
0 0 0 0 0 0 0 0 0 0 0 0 0 0 0 0 0 0 0 0 0 0 0 0 0 0 0 0 0 0 0 0
0 0 0 0 0 0 0 0 0 0 0 0 0 0 0 0 0 0 0 0 0 0 0 0 0 0 0 0 0 0 -0 0
0 0 0 0 0 0 0 0 0 0 0 0 0 0 0 0 0 0 0 0 0 0 0 0 0 0 0 0 0 0 0 0
0 0 0 0 0 0 0 0 0 0 0 0 0 0 0 0 0 0 0 0 0 0 0 0 0 0 0 0 0 0 0 0
0 0 -0 0 0 0 0 0 0 0 0 0 0 0 0 0 0 0 0 0 0 0 0 0 0 0 0 0 0 0 0 0
0 -0 -0 0 0 0 0 0 0 0 0 0 0 0 0 0 0 0 0 0 0 0 0 0 0 0 0 0 0 0 0 0
0 -0 -0 -0 0 0 0 0 -0 -0 0 0 0 0 0 0 0 0 0 0 0 0 0 0 0 0 0 0 0 0 0 0
-0 -0 -0 -0 -0 -0 0 0 0 -0 0 0 0 0 0 0 0 0 0 0 0 0 0 0 0 0 0 0 0 0 0 0
Wind_Speed_500mb
24 26 28 29 32 35 39 44 47 47 47 46 46 31 44 44 44 51 59 54 47 62 62 66 71 64 47 48 41 31 23 30
27 29 30 30 35 37 39 43 45 45 47 48 42 39 42 44 54 81 65 50 54 66 72 77 74 67 56 43 39 29 23 23
22 25 28 30 32 35 36 40 44 46 48 43 39 34 36 44 77 76 69 54 67 68 77 77 66 57 50 46 36 29 20 23
25 20 23 25 21 27 34 41 48 49 49 48 42 29 40 44 64 72 62 57 66 75 78 73 60 52 49 50 36 28 18 30
26 19 18 22 22 26 30 40 44 45 46 45 39 36 38 39 58 67 68 59 67 76 83 74 58 59 52 44 36 26 25 26
30 25 23 22 28 31 27 32 39 44 43 40 39 42 32 49 73 86 78 63 70 81 86 75 64 56 50 49 39 31 22 20
38 33 28 25 33 33 32 37 41 44 40 39 49 41 33 50 54 88 80 62 69 81 89 80 68 52 43 46 38 29 20 16
42 38 29 26 35 34 33 39 42 45 45 39 50 39 32 38 97 76 71 64 72 79 91 85 69 48 43 45 37 30 19 19
48 41 32 25 33 36 42 43 55 50 48 47 46 45 43 59 100 75 68 70 76 80 90 85 62 50 48 36 33 29 20 22
51 41 32 24 35 40 47 52 50 52 48 54 51 47 54 64 75 69 70 73 77 84 94 81 65 50 44 41 39 28 18 23
50 40 33 26 36 40 47 52 53 53 53 60 54 55 60 72 75 75 74 78 83 88 93 83 75 52 43 46 35 27 21 26
47 39 34 29 30 35 40 46 53 50 56 61 63 63 65 81 83 83 84 83 83 93 93 79 75 60 47 44 31 25 22 26
54 44 35 31 32 43 44 46 51 52 52 59 66 70 71 78 90 91 93 91 89 90 94 75 64 68 53 40 30 23 22 22
55 44 36 31 30 37 40 45 50 55 61 57 57 78 90 92 100 99 105 97 90 87 91 78 69 72 66 51 42 38 34 29
56 45 38 33 32 33 39 39 41 41 47 57 73 67 83 93 103 107 109 97 92 86 84 77 73 66 60 60 30 24 46 43
53 45 40 35 35 40 41 41 43 45 45 49 57 68 76 94 106 110 113 95 92 85 79 80 74 72 65 54 37 30 35 30
57 48 41 36 37 38 38 38 42 38 45 49 58 74 86 95 101 120 116 99 85 83 81 73 72 66 67 67 51 30 37 32
60 53 43 36 37 40 40 44 44 46 54 59 57 72 85 100 115 121 114 99 92 78 77 80 71 65 70 55 60 50 43 41
63 55 47 40 41 46 47 46 48 50 58 60 59 70 74 85 89 95 97 92 93 81 80 70 68 64 65 63 66 56 43 39
66 59 50 44 44 42 41 49 50 58 64 68 69 63 62 74 83 80 86 91 87 89 77 70 61 53 65 73 69 64 63 61
Wind_Direction_500mb
237 234 237 231 225 219 213 215 221 222 227 218 229 247 226 228 201 206 194 192 179 162 160 158 153 149 154 159 158 151 148 149
239 238 242 236 222 220 219 220 223 224 225 233 244 239 223 231 204 195 195 193 178 163 157 156 153 155 163 167 159 151 150 151
241 247 254 233 214 216 217 214 218 224 227 232 222 222 226 215 196 175 190 187 173 164 161 160 158 165 172 176 168 160 165 161
240 254 260 236 222 210 211 211 211 220 222 219 209 212 197 184 189 183 183 184 175 166 165 160 160 164 164 163 167 164 163 161
242 237 238 248 225 224 210 215 214 217 220 219 218 209 204 190 185 181 182 183 178 169 166 164 156 160 165 164 173 161 145 152
237 232 238 251 228 225 212 227 217 215 213 210 197 195 184 196 193 187 179 180 179 172 171 164 160 162 173 172 173 164 150 150
234 228 234 241 236 218 213 220 224 216 207 195 197 196 212 210 199 168 176 180 181 175 172 167 165 167 170 175 174 171 162 171
231 226 227 239 232 216 214 222 209 212 206 202 197 208 234 234 200 174 179 182 181 176 175 169 168 171 164 167 172 173 160 174
222 225 236 247 228 212 208 214 210 210 216 216 211 215 213 178 182 175 178 182 180 175 172 171 171 172 162 162 172 168 164 174
212 220 236 241 224 215 212 213 214 219 216 210 208 209 204 195 172 175 178 179 175 173 171 171 173 168 159 164 166 168 169 180
210 223 242 239 218 210 212 217 218 220 217 205 208 204 200 191 179 177 180 178 175 173 170 172 170 168 161 161 168 174 169 175
214 226 236 242 215 210 210 217 216 216 217 214 208 204 204 196 190 186 182 178 172 173 171 173 174 172 162 164 171 176 180 181
212 220 229 235 216 206 213 214 210 213 217 214 210 209 206 203 190 187 181 178 175 175 178 178 176 175 159 159 167 189 201 197
210 214 226 235 221 213 220 214 215 214 215 213 217 215 205 202 194 187 181 176 177 174 178 174 175 178 177 169 171 195 213 222
211 216 222 220 211 205 207 207 211 213 215 215 215 212 213 204 196 191 184 179 178 179 179 174 170 173 176 178 170 196 203 219
209 214 219 218 208 204 204 204 203 210 209 214 213 210 212 208 203 187 183 179 179 182 179 178 169 174 182 191 189 198 186 206
207 210 218 216 203 204 206 208 211 204 213 216 214 210 208 215 215 187 184 182 177 182 181 177 177 184 197 197 207 213 207 205
205 208 213 208 194 200 206 207 202 200 200 195 190 185 180 182 189 180 184 180 180 183 184 186 195 197 201 205 210 212 209 212
204 206 208 201 191 201 210 210 207 201 194 191 176 189 177 172 171 174 179 178 181 185 192 193 197 205 209 212 214 223 230 222
203 203 207 198 191 198 210 211 204 199 189 189 186 180 177 174 179 187 188 189 186 185 196 199 209 221 216 216 224 229 238 244
Wind_Speed_850mb
24 26 28 29 32 35 39 44 47 47 47 46 46 31 44 44 44 51 59 54 47 62 62 66 71 64 47 48 41 31 23 30
27 29 30 30 35 37 39 43 45 45 47 48 42 39 42 44 54 81 65 50 54 66 72 77 74 67 56 43 39 29 23 23
22 25 28 30 32 35 36 40 44 46 48 43 39 34 36 44 77 76 69 54 67 68 77 77 66 57 50 46 36 29 20 23
25 20 23 25 21 27 34 41 48 49 49 48 42 29 40 44 64 72 62 57 66 75 78 73 60 52 49 50 36 28 18 30
26 19 18 22 22 26 30 40 44 45 46 45 39 36 38 39 58 67 68 59 67 76 83 74 58 59 52 44 36 26 25 26
30 25 23 22 28 31 27 32 39 44 43 40 39 42 32 49 73 86 78 63 70 81 86 75 64 56 50 49 39 31 22 20
38 33 28 25 33 33 32 37 41 44 40 39 49 41 33 50 54 88 80 62 69 81 89 80 68 52 43 46 38 29 20 16
42 38 29 26 35 34 33 39 42 45 45 39 50 39 32 38 97 76 71 64 72 79 91 85 69 48 43 45 37 30 19 19
48 41 32 25 33 36 42 43 55 50 48 47 46 45 43 59 100 75 68 70 76 80 90 85 62 50 48 36 33 29 20 22
51 41 32 24 35 40 47 52 50 52 48 54 51 47 54 64 75 69 70 73 77 84 94 81 65 50 44 41 39 28 18 23
50 40 33 26 36 40 47 52 53 53 53 60 54 55 60 72 75 75 74 78 83 88 93 83 75 52 43 46 35 27 21 26
47 39 34 29 30 35 40 46 53 50 56 61 63 63 65 81 83 83 84 83 83 93 93 79 75 60 47 44 31 25 22 26
54 44 35 31 32 43 44 46 51 52 52 59 66 70 71 78 90 91 93 91 89 90 94 75 64 68 53 40 30 23 22 22
55 44 36 31 30 37 40 45 50 55 61 57 57 78 90 92 100 99 105 97 90 87 91 78 69 72 66 51 42 38 34 29
56 45 38 33 32 33 39 39 41 41 47 57 73 67 83 93 103 107 109 97 92 86 84 77 73 66 60 60 30 24 46 43
53 45 40 35 35 40 41 41 43 45 45 49 57 68 76 94 106 110 113 95 92 85 79 80 74 72 65 54 37 30 35 30
57 48 41 36 37 38 38 38 42 38 45 49 58 74 86 95 101 120 116 99 85 83 81 73 72 66 67 67 51 30 37 32
60 53 43 36 37 40 40 44 44 46 54 59 57 72 85 100 115 121 114 99 92 78 77 80 71 65 70 55 60 50 43 41
63 55 47 40 41 46 47 46 48 50 58 60 59 70 74 85 89 95 97 92 93 81 80 70 68 64 65 63 66 56 43 39
66 59 50 44 44 42 41 49 50 58 64 68 69 63 62 74 83 80 86 91 87 89 77 70 61 53 65 73 69 64 63 61
Wind_Direction_850mb
237 234 237 231 225 219 213 215 221 222 227 218 229 247 226 228 201 206 194 192 179 162 160 158 153 149 154 159 158 151 148 149
239 238 242 236 222 220 219 220 223 224 225 233 244 239 223 231 204 195 195 193 178 163 157 156 153 155 163 167 159 151 150 151
241 247 254 233 214 216 217 214 218 224 227 232 222 222 226 215 196 175 190 187 173 164 161 160 158 165 172 176 168 160 165 161
240 254 260 236 222 210 211 211 211 220 222 219 209 212 197 184 189 183 183 184 175 166 165 160 160 164 164 163 167 164 163 161
242 237 238 248 225 224 210 215 214 217 220 219 218 209 204 190 185 181 182 183 178 169 166 164 156 160 165 164 173 161 145 152
237 232 238 251 228 225 212 227 217 215 213 210 197 195 184 196 193 187 179 180 179 172 171 164 160 162 173 172 173 164 150 150
234 228 234 241 236 218 213 220 224 216 207 195 197 196 212 210 199 168 176 180 181 175 172 167 165 167 170 175 174 171 162 171
231 226 227 239 232 216 214 222 209 212 206 202 197 208 234 234 200 174 179 182 181 176 175 169 168 171 164 167 172 173 160 174
222 225 236 247 228 212 208 214 210 210 216 216 211 215 213 178 182 175 178 182 180 175 172 171 171 172 162 162 172 168 164 174
212 220 236 241 224 215 212 213 214 219 216 210 208 209 204 195 172 175 178 179 175 173 171 171 173 168 159 164 166 168 169 180
210 223 242 239 218 210 212 217 218 220 217 205 208 204 200 191 179 177 180 178 175 173 170 172 170 168 161 161 168 174 169 175
214 226 236 242 215 210 210 217 216 216 217 214 208 204 204 196 190 186 182 178 172 173 171 173 174 172 162 164 171 176 180 181
212 220 229 235 216 206 213 214 210 213 217 214 210 209 206 203 190 187 181 178 175 175 178 178 176 175 159 159 167 189 201 197
210 214 226 235 221 213 220 214 215 214 215 213 217 215 205 202 194 187 181 176 177 174 178 174 175 178 177 169 171 195 213 222
211 216 222 220 211 205 207 207 211 213 215 215 215 212 213 204 196 191 184 179 178 179 179 174 170 173 176 178 170 196 203 219
209 214 219 218 208 204 204 204 203 210 209 214 213 210 212 208 203 187 183 179 179 182 179 178 169 174 182 191 189 198 186 206
207 210 218 216 203 204 206 208 211 204 213 216 214 210 208 215 215 187 184 182 177 182 181 177 177 184 197 197 207 213 207 205
205 208 213 208 194 200 206 207 202 200 200 195 190 185 180 182 189 180 184 180 180 183 184 186 195 197 201 205 210 212 209 212
204 206 208 201 191 201 210 210 207 201 194 191 176 189 177 172 171 174 179 178 181 185 192 193 197 205 209 212 214 223 230 222
203 203 207 198 191 198 210 211 204 199 189 189 186 180 177 174 179 187 188 189 186 185 196 199 209 221 216 216 224 229 238 244